Location: Bessat
(45.8735°N, 1.9924°E)
Time: 04:36:38
(UTC+00:00)

Cosmos 1610 Rocket - Pass Details

Date: 11 May 2021
Orbit: 952 x 1003 km, 82.9° (Epoch: 14 June)

Event Time Altitude Azimuth Distance (km) Brightness Sun altitude
Rises 21:32:50 0° 353° (N) 3,647 8.6 -19.0°
Reaches altitude 10° 21:35:22 10° 356° (N) 2,693 7.7 -19.3°
Maximum altitude 21:41:30 70° 80° (E) 1,012 4.5 -19.9°
Enters shadow 21:44:06 36° 154° (SSE) 1,464 4.9 -20.1°
